COSMOS 1275 DEB

Satellite information

Favourite Embed

Satellite Type and Status

DEBRISIN ORBIT

Key statistics

Satellite COSMOS 1275 DEB at a glance.

Uptime

16264

Days in orbit

Revolutions

≈ 14.4

Per day

Orbit

LEO

Low Earth Orbit

Inclination

82.8

Latest

Satellite identification and parameters

Extended collection of information and parameters for COSMOS 1275 DEB.

Object identification

Identified? True

Debris? True

Object name: COSMOS 1275 DEB

International designator: 1981-053QA

Object number (NORAD): 42114

Object ID (CCSDS): 42114

Country: COMMONWEALTH OF INDEPENDENT STATES (CIS)

Current information (Y/N): Y

RCS size: SMALL

Orbital parameters

Period: 100.091 minutes

Inclination: 82.8133 deg

SMA: 7140.969 km

Apoapsis: 789.629 km

Periapsis: 736.038 km

RAAN: 86.9702 deg

Eccentricy: 0.00375237

Argument of periapsis: 156.1774 deg

Mean anomaly: 233.8205 deg

Mean motion: 14.38689472 rev/day

Mean motion (dot): 0.00011744 rev/day2

B* drag term: 0.0037897562 1/REarth

Two-line elements (TLE)

Creation date: Dec. 13, 2025, 4:32 a.m.

Reference frame: TEME

Reference center: EARTH

Epoch: Dec. 12, 2025, 6:53 a.m. UTC

TLE line 0: 0 COSMOS 1275 DEB

TLE line 1: 1 42114U 81053QA 25346.28692854 .00011744 00000-0 37898-2 0 9997

TLE line 2: 2 42114 82.8133 86.9702 0037524 156.1774 233.8205 14.38689472624213

Live tracking on map

Real-time ground track for satellite COSMOS 1275 DEB.

In-orbit conjunctions

A list of the most updated potential collisions computed for object COSMOS 1275 DEB.

Target Orbit TCA Probability of collision Miss distance Type
CZ-4 DEB SSO 2025-10-06 22:05:07 0.0001642659 35.0 (m) DEBRIS
SL-8 R/B LEO 2025-05-13 05:11:29 0.0001062089 450.0 (m) ROCKET BODY
IRIDIUM 33 DEB LEO 2025-03-18 02:48:14 0.0001086257 224.0 (m) DEBRIS
METEOR 1-16 DEB LEO 2024-11-12 07:26:06 0.000437905 451.0 (m) DEBRIS
FENGYUN 1C DEB SSO 2024-08-30 12:26:56 0.0001736709 129.0 (m) DEBRIS

Associated space launch

Navigation satellite providing location information for the Tsiklon-B navigation system

COSMOS 1275 DEB was lifted into orbit during the mission ‘Kosmos-3M | Parus 27’, on board a Kosmos-3M space rocket.

The launch took place on June 4, 1981, 3:41 p.m. from 132/2.

For more information about the launch, click the button.

Launch to space Kosmos-3M | Parus 27
Kosmos-3M | Parus 27

Agency: N/A

Status: Launch Successful

Launch date: June 4, 1981, 3:41 p.m. UTC

Rocket: Kosmos-3M

Launch pad: 132/2

Location: Plesetsk Cosmodrome, Russian Federation

...

Latest news about this satellite

There are no fresh news available about this satellite. Check back as we update our databases every day.


Newsletter sign-up

Weekly statistics, charts and insights to help you stay on top of the space industry.